Weather History for Reno, NV

Change the Weather History Date:

Saturday, March 23, 2013

  Actual Average Record
Temperature  
Mean Temperature 41 °F 47 °F  
Max Temperature 57 °F 59 °F 76 °F (1960)
Min Temperature 24 °F 34 °F 12 °F (1898)
Degree Days  
Heating Degree Days 24 18  
Month to date heating degree days 373 456  
Since 1 July heating degree days 3857 4094  
Cooling Degree Days 0 0  
Month to date cooling degree days 0 0  
Year to date cooling degree days 0 0  
Moisture  
Dew Point 9 °F    
Average Humidity 33    
Maximum Humidity 50    
Minimum Humidity 15    
Precipitation  
Precipitation 0.00 in 0.02 in 1.25 in (1907)
Month to date precipitation 0.13 0.62  
Year to date precipitation 0.25 2.67  
Snow  
Snow 0.00 in 0.10 in 9.00 in (1907)
Month to date snowfall 0.1 1.7  
Since 1 July snowfall 9.4 20.7  
Snow Depth 0.00 in    
Sea Level Pressure  
Sea Level Pressure 30.13 in    
Wind  
Wind Speed 3 mph (NE)    
Max Wind Speed 13 mph    
Max Gust Speed 15 mph    
Visibility 10 miles    
Events      
T = Trace of Precipitation, MM = Missing Value Source: NWS Daily Summary

Daily Weather History Graph

Daily Weather History Graph

Search for Another Location

Airport:

Trip Planner

Search our weather history database for the weather conditions in past years. The results will help you decide how hot, cold, wet, or windy it might be!

Date:

Astronomy

Mar. 23, 2013 Rise Set
Actual Time 6:57 AM PDT 7:14 PM PDT
Civil Twilight 6:30 AM PDT 7:41 PM PDT
Nautical Twilight 5:58 AM PDT 8:12 PM PDT
Astronomical Twilight 5:26 AM PDT 8:45 PM PDT
Moon 3:47 PM PDT (3/23) 4:35 AM PDT (3/23)
Length of Visible Light 13h 11m
Length of Day
12h 17m
Waxing Gibbous, 86% of the Moon is Illuminated
Mar 23
Waxing Gibbous
Mar 27
Full
Apr 2
Last Quarter
Apr 10
New
Apr 18
First Quarter

Hourly Weather History & Observations

Time (PDT) Temp. Windchill Dew Point Humidity Pressure Visibility Wind Dir Wind Speed Gust Speed Precip Events Conditions
12:55 AM 33.1 °F - 8.1 °F 35% 30.17 in 10.0 mi Calm Calm - N/A   Clear
1:55 AM 34.0 °F 29.8 °F 9.0 °F 35% 30.17 in 10.0 mi NW 4.6 mph - N/A   Clear
2:55 AM 30.9 °F - 8.1 °F 38% 30.17 in 10.0 mi Calm Calm - N/A   Clear
3:55 AM 28.4 °F - 10.4 °F 47% 30.17 in 10.0 mi Calm Calm - N/A   Clear
4:55 AM 28.0 °F - 10.0 °F 47% 30.17 in 10.0 mi Calm Calm - N/A   Clear
5:55 AM 28.4 °F 24.6 °F 10.4 °F 47% 30.18 in 10.0 mi SSW 3.5 mph - N/A   Clear
6:55 AM 26.1 °F - 10.0 °F 51% 30.22 in 10.0 mi Calm Calm - N/A   Clear
7:55 AM 27.0 °F - 10.9 °F 51% 30.25 in 10.0 mi Calm Calm - N/A   Partly Cloudy
8:55 AM 30.9 °F - 10.9 °F 43% 30.22 in 10.0 mi Calm Calm - N/A   Partly Cloudy
9:55 AM 36.0 °F 33.3 °F 10.0 °F 34% 30.22 in 10.0 mi NE 3.5 mph - N/A   Partly Cloudy
10:55 AM 39.9 °F 35.1 °F 9.0 °F 28% 30.20 in 10.0 mi South 6.9 mph - N/A   Scattered Clouds
11:55 AM 42.1 °F 40.2 °F 9.0 °F 26% 30.17 in 10.0 mi Variable 3.5 mph - N/A   Partly Cloudy
12:55 PM 46.0 °F 43.9 °F 10.0 °F 23% 30.14 in 10.0 mi Variable 4.6 mph - N/A   Partly Cloudy
1:55 PM 48.9 °F - 8.1 °F 19% 30.09 in 10.0 mi Calm Calm - N/A   Scattered Clouds
2:55 PM 50.0 °F - 9.0 °F 19% 30.07 in 10.0 mi Calm Calm - N/A   Scattered Clouds
3:55 PM 55.0 °F - 8.1 °F 15% 30.03 in 10.0 mi NW 3.5 mph - N/A   Scattered Clouds
4:55 PM 55.9 °F - 9.0 °F 15% 30.01 in 10.0 mi East 4.6 mph - N/A   Scattered Clouds
5:55 PM 55.9 °F - 9.0 °F 15% 30.02 in 10.0 mi East 6.9 mph - N/A   Scattered Clouds
6:55 PM 53.1 °F - 9.0 °F 17% 30.04 in 10.0 mi ENE 4.6 mph - N/A   Scattered Clouds
7:55 PM 48.9 °F - 9.0 °F 20% 30.08 in 10.0 mi NNE 8.1 mph - N/A   Scattered Clouds
8:55 PM 46.0 °F 44.8 °F 8.1 °F 21% 30.08 in 10.0 mi North 3.5 mph - N/A   Clear
9:55 PM 45.0 °F 41.8 °F 9.0 °F 23% 30.09 in 10.0 mi North 5.8 mph - N/A   Clear
10:55 PM 43.0 °F 41.3 °F 8.1 °F 24% 30.10 in 10.0 mi East 3.5 mph - N/A   Clear
11:55 PM 41.0 °F - 12.9 °F 32% 30.10 in 10.0 mi Calm Calm - N/A   Clear